TimePDT,TemperatureF,Dew PointF,Humidity,Sea Level PressureIn,VisibilityMPH,Wind Direction,Wind SpeedMPH,Gust SpeedMPH,PrecipitationIn,Events,Conditions,WindDirDegrees,DateUTC
12:53 AM,43.0,19.0,38,30.29,10.0,West,5.8,-,N/A,,Clear,280,2012-10-03 07:53:00
1:53 AM,37.9,25.0,60,30.31,10.0,West,6.9,-,N/A,,Clear,280,2012-10-03 08:53:00
2:53 AM,34.0,24.1,67,30.33,10.0,WNW,8.1,-,N/A,,Clear,290,2012-10-03 09:53:00
3:53 AM,34.0,24.1,67,30.35,10.0,WNW,6.9,-,N/A,,Clear,300,2012-10-03 10:53:00
4:53 AM,34.0,24.1,67,30.38,10.0,West,3.5,-,N/A,,Clear,270,2012-10-03 11:53:00
5:53 AM,30.9,23.0,72,30.40,10.0,WNW,5.8,-,N/A,,Clear,290,2012-10-03 12:53:00
6:53 AM,32.0,24.1,73,30.43,10.0,WSW,5.8,-,N/A,,Clear,240,2012-10-03 13:53:00
7:53 AM,35.1,25.0,67,30.44,10.0,West,8.1,-,N/A,,Clear,270,2012-10-03 14:53:00
8:53 AM,45.0,26.1,48,30.43,10.0,West,4.6,-,N/A,,Clear,280,2012-10-03 15:53:00
9:53 AM,51.1,26.1,38,30.45,10.0,West,5.8,-,N/A,,Clear,260,2012-10-03 16:53:00
10:53 AM,57.9,23.0,26,30.44,10.0,NNW,3.5,-,N/A,,Clear,330,2012-10-03 17:53:00
11:53 AM,61.0,23.0,23,30.42,10.0,NE,5.8,-,N/A,,Clear,50,2012-10-03 18:53:00
12:53 PM,62.1,24.1,23,30.41,10.0,East,9.2,16.1,N/A,,Clear,90,2012-10-03 19:53:00
1:53 PM,63.0,24.1,23,30.39,10.0,East,8.1,-,N/A,,Clear,80,2012-10-03 20:53:00
2:53 PM,64.0,24.1,22,30.37,10.0,NE,5.8,-,N/A,,Clear,50,2012-10-03 21:53:00
3:53 PM,64.9,25.0,22,30.35,10.0,ENE,10.4,-,N/A,,Clear,60,2012-10-03 22:53:00
4:53 PM,64.9,25.0,22,30.34,10.0,ENE,8.1,-,N/A,,Clear,60,2012-10-03 23:53:00
5:53 PM,62.1,27.0,26,30.34,10.0,East,8.1,-,N/A,,Clear,80,2012-10-04 00:53:00
6:53 PM,54.0,28.9,38,30.34,10.0,Calm,Calm,-,N/A,,Clear,0,2012-10-04 01:53:00
7:53 PM,44.1,28.9,55,30.34,10.0,West,6.9,-,N/A,,Clear,270,2012-10-04 02:53:00
8:53 PM,43.0,28.9,58,30.35,10.0,West,8.1,-,N/A,,Clear,270,2012-10-04 03:53:00
9:53 PM,42.1,28.9,60,30.34,10.0,WNW,10.4,-,N/A,,Clear,290,2012-10-04 04:53:00
10:53 PM,43.0,27.0,53,30.32,10.0,West,8.1,-,N/A,,Clear,280,2012-10-04 05:53:00
11:53 PM,39.0,27.0,62,30.33,10.0,West,6.9,-,N/A,,Clear,260,2012-10-04 06:53:00